Location: Москва
(55.7504°N, 37.6175°E)
Time: 21:29:36
(UTC+03:00)

Nauka - Pass Details

Date: 28 September 2021
Orbit: 417 x 423 km, 51.6° (Epoch: 26 October)

Event Time Altitude Azimuth Distance (km) Brightness Sun altitude
Rises 20:28:10 0° 272° (W) 2,368 ? -19.4°
Reaches altitude 10° 20:30:30 10° 259° (W) 1,503 ? -19.7°
Enters shadow 20:33:12 25° 206° (SSW) 901 ? -20.0°
